Hourly Weather Klajty

Today, 27 July, Tuesday

Time Temperature Precipitation Wind Pressure Humidity
00:00 +18°C° 0.1 mm 2 mps 748 mmHg 97%
01:00 +18°C° 0.1 mm 2 mps 748 mmHg 98%
02:00 +18°C° 0.1 mm 2 mps 748 mmHg 98%
03:00 +18°C° 0.1 mm 2 mps 748 mmHg 98%
04:00 +18°C° 0.1 mm 2 mps 748 mmHg 98%
05:00 +19°C° 0.1 mm 2 mps 748 mmHg 95%
06:00 +20°C° 0.1 mm 2 mps 748 mmHg 92%
07:00 +21°C° 0.1 mm 2 mps 748 mmHg 89%
08:00 +24°C° 0.4 mm 2 mps 748 mmHg 84%
09:00 +25°C° 0.4 mm 2 mps 748 mmHg 78%
10:00 +26°C° 0.4 mm 3 mps 748 mmHg 73%
11:00 +27°C° 0.5 mm 3 mps 748 mmHg 67%
12:00 +28°C° 0.5 mm 3 mps 748 mmHg 62%
13:00 +29°C° 0.5 mm 4 mps 748 mmHg 56%
14:00 +29°C° 0.2 mm 3 mps 748 mmHg 56%
15:00 +29°C° 0.2 mm 3 mps 748 mmHg 56%
16:00 +29°C° 0.2 mm 3 mps 748 mmHg 56%
17:00 +27°C° 0.7 mm 2 mps 748 mmHg 67%
18:00 +24°C° 0.7 mm 2 mps 748 mmHg 78%
19:00 +21°C° 0.7 mm 2 mps 748 mmHg 89%
20:00 +20°C° 0.1 mm 2 mps 748 mmHg 89%
21:00 +21°C° 0.1 mm 1 mps 749 mmHg 88%
22:00 +20°C° 0.1 mm 1 mps 749 mmHg 88%
23:00 +20°C° 0 mm 1 mps 749 mmHg 89%

Tomorrow, 28 July, Wednesday

Time Temperature Precipitation Wind Pressure Humidity
00:00 +20°C° 0 mm 1 mps 749 mmHg 89%
01:00 +19°C° 0 mm 2 mps 748 mmHg 90%
02:00 +19°C° 0 mm 2 mps 748 mmHg 91%
03:00 +18°C° 0 mm 2 mps 748 mmHg 91%
04:00 +18°C° 0 mm 2 mps 748 mmHg 91%
05:00 +19°C° 0 mm 2 mps 748 mmHg 87%
06:00 +21°C° 0 mm 3 mps 748 mmHg 83%
07:00 +22°C° 0 mm 3 mps 748 mmHg 78%
08:00 +24°C° 0 mm 3 mps 748 mmHg 71%
09:00 +26°C° 0 mm 3 mps 748 mmHg 64%
10:00 +27°C° 0 mm 3 mps 749 mmHg 57%
11:00 +27°C° 0 mm 3 mps 748 mmHg 58%
12:00 +27°C° 0 mm 3 mps 748 mmHg 58%
13:00 +27°C° 0 mm 3 mps 748 mmHg 59%
14:00 +26°C° 0 mm 3 mps 748 mmHg 62%
15:00 +25°C° 0 mm 3 mps 748 mmHg 65%
16:00 +24°C° 0 mm 3 mps 748 mmHg 67%
17:00 +24°C° 0 mm 2 mps 747 mmHg 70%
18:00 +23°C° 0 mm 2 mps 747 mmHg 74%
19:00 +22°C° 0 mm 1 mps 747 mmHg 77%
20:00 +21°C° 0 mm 2 mps 747 mmHg 77%
21:00 +20°C° 0 mm 2 mps 747 mmHg 77%
22:00 +20°C° 0 mm 2 mps 748 mmHg 76%
23:00 +19°C° 0.2 mm 2 mps 747 mmHg 82%

Day after tomorrow, 29 July, Thursday

Time Temperature Precipitation Wind Pressure Humidity
00:00 +19°C° 0.2 mm 2 mps 747 mmHg 87%
01:00 +18°C° 0.2 mm 2 mps 747 mmHg 92%
02:00 +18°C° 0 mm 2 mps 747 mmHg 93%
03:00 +18°C° 0 mm 3 mps 747 mmHg 93%
04:00 +17°C° 0 mm 3 mps 747 mmHg 93%
05:00 +18°C° 0 mm 3 mps 747 mmHg 89%
06:00 +19°C° 0 mm 3 mps 747 mmHg 85%
07:00 +20°C° 0 mm 4 mps 747 mmHg 81%
08:00 +21°C° 0 mm 4 mps 747 mmHg 74%
09:00 +23°C° 0 mm 5 mps 747 mmHg 67%
10:00 +25°C° 0 mm 5 mps 747 mmHg 60%
11:00 +25°C° 0 mm 5 mps 747 mmHg 56%
12:00 +26°C° 0 mm 6 mps 747 mmHg 52%
13:00 +26°C° 0 mm 6 mps 747 mmHg 48%
14:00 +26°C° 0 mm 6 mps 746 mmHg 50%
15:00 +26°C° 0 mm 6 mps 746 mmHg 51%
16:00 +26°C° 0 mm 6 mps 746 mmHg 52%
17:00 +25°C° 0 mm 5 mps 746 mmHg 57%
18:00 +22°C° 0 mm 4 mps 746 mmHg 61%
19:00 +21°C° 0 mm 4 mps 746 mmHg 66%
20:00 +19°C° 0 mm 3 mps 746 mmHg 71%
21:00 +18°C° 0 mm 2 mps 746 mmHg 76%
22:00 +17°C° 0 mm 2 mps 746 mmHg 81%
23:00 +16°C° 0 mm 2 mps 746 mmHg 81%

30 July, Friday

Time Temperature Precipitation Wind Pressure Humidity
00:00 +16°C° 0 mm 2 mps 746 mmHg 81%
01:00 +14°C° 0 mm 3 mps 746 mmHg 81%
02:00 +14°C° 0 mm 3 mps 746 mmHg 79%
03:00 +14°C° 0 mm 3 mps 746 mmHg 77%
04:00 +13°C° 0 mm 3 mps 746 mmHg 76%
05:00 +16°C° 0 mm 3 mps 746 mmHg 71%
06:00 +17°C° 0 mm 4 mps 746 mmHg 66%
07:00 +19°C° 0 mm 4 mps 746 mmHg 60%
08:00 +20°C° 0 mm 5 mps 746 mmHg 56%
09:00 +21°C° 0 mm 5 mps 746 mmHg 52%
10:00 +22°C° 0 mm 5 mps 746 mmHg 48%
11:00 +23°C° 0 mm 5 mps 746 mmHg 46%
12:00 +23°C° 0 mm 6 mps 745 mmHg 44%
13:00 +24°C° 0 mm 6 mps 745 mmHg 43%
14:00 +25°C° 0 mm 5 mps 745 mmHg 45%
15:00 +25°C° 0 mm 5 mps 744 mmHg 47%
16:00 +25°C° 0 mm 5 mps 744 mmHg 49%
17:00 +23°C° 0 mm 4 mps 744 mmHg 55%
18:00 +21°C° 0 mm 3 mps 744 mmHg 60%
19:00 +20°C° 0 mm 2 mps 744 mmHg 66%
20:00 +18°C° 0 mm 2 mps 744 mmHg 69%
21:00 +18°C° 0 mm 1 mps 744 mmHg 72%
22:00 +16°C° 0 mm 1 mps 744 mmHg 75%
23:00 +15°C° 0 mm 1 mps 744 mmHg 76%

31 July, Saturday

Time Temperature Precipitation Wind Pressure Humidity
00:00 +15°C° 0 mm 1 mps 744 mmHg 77%
01:00 +15°C° 0 mm 2 mps 745 mmHg 78%
02:00 +15°C° 0 mm 2 mps 744 mmHg 76%
03:00 +14°C° 0 mm 2 mps 744 mmHg 75%
04:00 +14°C° 0 mm 2 mps 744 mmHg 73%
05:00 +16°C° 0 mm 3 mps 744 mmHg 70%
06:00 +17°C° 0 mm 3 mps 744 mmHg 66%
07:00 +19°C° 0 mm 3 mps 744 mmHg 62%
08:00 +21°C° 0 mm 3 mps 744 mmHg 57%
09:00 +24°C° 0 mm 3 mps 744 mmHg 52%
10:00 +25°C° 0 mm 4 mps 744 mmHg 47%
11:00 +26°C° 0 mm 4 mps 743 mmHg 46%
12:00 +27°C° 0 mm 5 mps 743 mmHg 46%
13:00 +27°C° 0 mm 5 mps 743 mmHg 45%
14:00 +26°C° 0.1 mm 5 mps 742 mmHg 51%
15:00 +25°C° 0.1 mm 5 mps 742 mmHg 57%
16:00 +23°C° 0.1 mm 6 mps 742 mmHg 63%
17:00 +22°C° 0.1 mm 5 mps 742 mmHg 66%
18:00 +20°C° 0.1 mm 4 mps 743 mmHg 69%
19:00 +19°C° 0.1 mm 3 mps 743 mmHg 72%
20:00 +18°C° 0 mm 3 mps 743 mmHg 73%
21:00 +16°C° 0 mm 3 mps 743 mmHg 74%
22:00 +14°C° 0 mm 3 mps 744 mmHg 75%
23:00 +14°C° 0 mm 3 mps 744 mmHg 77%

1 August, Sunday

Time Temperature Precipitation Wind Pressure Humidity
00:00 +14°C° 0 mm 3 mps 744 mmHg 79%
01:00 +13°C° 0 mm 4 mps 744 mmHg 81%
02:00 +13°C° 0 mm 4 mps 744 mmHg 83%
03:00 +13°C° 0 mm 4 mps 744 mmHg 85%
04:00 +13°C° 0 mm 4 mps 744 mmHg 88%
05:00 +14°C° 0 mm 5 mps 744 mmHg 82%
06:00 +15°C° 0 mm 6 mps 744 mmHg 77%
07:00 +16°C° 0 mm 6 mps 744 mmHg 72%
08:00 +17°C° 0 mm 6 mps 745 mmHg 65%
09:00 +20°C° 0 mm 7 mps 745 mmHg 57%
10:00 +21°C° 0 mm 7 mps 745 mmHg 50%
11:00 +22°C° 0 mm 6 mps 745 mmHg 47%
12:00 +22°C° 0 mm 6 mps 745 mmHg 44%
13:00 +23°C° 0 mm 6 mps 744 mmHg 41%
14:00 +23°C° 0 mm 5 mps 744 mmHg 43%
15:00 +23°C° 0 mm 5 mps 744 mmHg 45%
16:00 +23°C° 0 mm 4 mps 744 mmHg 48%
17:00 +22°C° 0 mm 4 mps 744 mmHg 51%
18:00 +20°C° 0 mm 3 mps 744 mmHg 55%
19:00 +19°C° 0 mm 3 mps 744 mmHg 59%
20:00 +19°C° 0 mm 3 mps 744 mmHg 61%
21:00 +18°C° 0 mm 3 mps 744 mmHg 63%
22:00 +18°C° 0 mm 3 mps 744 mmHg 65%
23:00 +17°C° 0 mm 3 mps 744 mmHg 71%
Show more